Weather History for Adrian, MI

Change the Weather History Date:

Wednesday, February 12, 2014

  Actual Average Record
Temperature  
Mean Temperature 0 °F -  
Max Temperature 16 °F 32 °F 54 °F (1984)
Min Temperature -15 °F 13 °F -15 °F (2014)
Degree Days  
Heating Degree Days 64    
Moisture  
Dew Point -6 °F    
Average Humidity 80    
Maximum Humidity 100    
Minimum Humidity 59    
Precipitation  
Precipitation 0.00 in - - ()
Sea Level Pressure  
Sea Level Pressure 30.33 in    
Wind  
Wind Speed 1 mph (East)    
Max Wind Speed 5 mph    
Max Gust Speed -    
Visibility 6 miles    
Events Fog    
Averages and records for this station are not official NWS values.
T = Trace of Precipitation, MM = Missing Value Source: NWS Daily Summary

Daily Weather History Graph

Daily Weather History Graph

Search for Another Location

Airport:

Trip Planner

Search our weather history database for the weather conditions in past years. The results will help you decide how hot, cold, wet, or windy it might be!

Date:

Astronomy

Feb. 12, 2014 Rise Set
Actual Time 7:35 AM EST 6:05 PM EST
Civil Twilight 7:07 AM EST 6:34 PM EST
Nautical Twilight 6:34 AM EST 7:07 PM EST
Astronomical Twilight 6:02 AM EST 7:39 PM EST
Moon 4:17 PM EST (2/12) 5:53 AM EST (2/12)
Length of Visible Light 11h 27m
Length of Day
10h 29m
Waxing Gibbous, 95% of the Moon is Illuminated
Feb 12
Waxing Gibbous
Feb 14
Full
Feb 22
Last Quarter
Mar 1
New
Mar 8
First Quarter

Hourly Weather History & Observations

Time (EST) Temp. Windchill Dew Point Humidity Pressure Visibility Wind Dir Wind Speed Gust Speed Precip Events Conditions
12:53 AM -8.0 °F - -13.0 °F 79% 30.51 in 10.0 mi Calm Calm - N/A   Clear
1:53 AM -11.0 °F - -15.0 °F 83% 30.49 in 10.0 mi Calm Calm - N/A   Clear
2:53 AM -11.0 °F -20.4 °F -16.1 °F 78% 30.46 in 10.0 mi NNE 3.5 mph - N/A   Clear
3:53 AM -11.9 °F - -16.1 °F 82% 30.45 in 10.0 mi Calm Calm - N/A   Clear
4:53 AM -14.1 °F - -18.0 °F 82% 30.46 in 9.0 mi Calm Calm - N/A   Clear
5:06 AM -15.0 °F - -20.0 °F 78% 30.38 in 10.0 mi Calm Calm - N/A   Scattered Clouds
5:14 AM -15.0 °F - -20.0 °F 78% 30.38 in 10.0 mi Calm Calm - N/A   Mostly Cloudy
5:53 AM -15.0 °F -25.0 °F -20.0 °F 78% 30.46 in 10.0 mi North 3.5 mph - N/A   Overcast
6:41 AM -11.9 °F - -16.1 °F 82% 30.36 in 1.0 mi Calm Calm - N/A   Mist
6:48 AM -11.2 °F - -16.6 °F 77% 30.36 in 0.2 mi Calm Calm - N/A Fog Light Freezing Fog
6:53 AM -11.9 °F -21.5 °F -15.0 °F 86% 30.43 in 0.2 mi NNE 3.5 mph - N/A Fog Light Freezing Fog
7:24 AM -11.9 °F - -14.1 °F 90% 30.34 in 1.2 mi Calm Calm - N/A   Overcast
7:37 AM -11.9 °F - -16.1 °F 82% 30.34 in 0.2 mi Calm Calm - N/A Fog Light Freezing Fog
7:53 AM -11.9 °F -21.5 °F -14.1 °F 90% 30.41 in 0.2 mi NE 3.5 mph - N/A Fog Light Freezing Fog
8:29 AM -9.0 °F - -11.9 °F 87% 30.33 in 1.0 mi Calm Calm - N/A   Mist
8:41 AM -9.9 °F - -11.0 °F 95% 30.33 in 0.2 mi Calm Calm - N/A Fog Light Freezing Fog
8:53 AM -9.0 °F - -9.0 °F 100% 30.41 in 0.2 mi Calm Calm - N/A Fog Light Freezing Fog
9:53 AM -4.0 °F - -4.0 °F 100% 30.41 in 0.2 mi Calm Calm - N/A Fog Light Freezing Fog
10:53 AM 1.0 °F -6.7 °F -2.0 °F 87% 30.39 in 0.2 mi North 3.5 mph - N/A Fog Light Freezing Fog
11:03 AM 1.9 °F - 1.9 °F 100% 30.31 in 1.8 mi Calm Calm - N/A   Mostly Cloudy
11:05 AM 3.0 °F - 1.0 °F 91% 30.31 in 2.5 mi Calm Calm - N/A   Scattered Clouds
11:15 AM 3.9 °F - -0.0 °F 84% 30.30 in 3.0 mi Calm Calm - N/A   Partly Cloudy
11:53 AM 5.0 °F - 1.0 °F 84% 30.37 in 6.0 mi Calm Calm - N/A   Clear
12:53 PM 9.0 °F 0.6 °F 3.0 °F 77% 30.33 in 10.0 mi South 4.6 mph - N/A   Clear
1:53 PM 10.0 °F 1.8 °F 3.0 °F 73% 30.27 in 10.0 mi South 4.6 mph - N/A   Clear
2:53 PM 12.0 °F 4.1 °F 3.0 °F 67% 30.24 in 10.0 mi South 4.6 mph - N/A   Clear
3:53 PM 14.0 °F - 3.9 °F 64% 30.23 in 10.0 mi Calm Calm - N/A   Clear
4:53 PM 16.0 °F - 3.9 °F 59% 30.21 in 10.0 mi Calm Calm - N/A   Clear
5:53 PM 14.0 °F - 3.0 °F 62% 30.21 in 10.0 mi Calm Calm - N/A   Clear
6:53 PM 10.0 °F 3.6 °F 1.9 °F 70% 30.19 in 10.0 mi ESE 3.5 mph - N/A   Mostly Cloudy
7:53 PM 12.9 °F - 6.1 °F 74% 30.19 in 9.0 mi Calm Calm - N/A   Overcast
8:53 PM 14.0 °F - 5.0 °F 67% 30.20 in 9.0 mi Calm Calm - N/A   Overcast
9:53 PM 14.0 °F - 7.0 °F 74% 30.18 in 9.0 mi Calm Calm - N/A   Overcast
10:53 PM 14.0 °F 8.2 °F 6.1 °F 71% 30.16 in 9.0 mi SE 3.5 mph - N/A   Overcast
11:53 PM 10.9 °F 2.9 °F 3.9 °F 73% 30.13 in 9.0 mi ESE 4.6 mph - N/A   Partly Cloudy